M2 PATHFINDER

Last updated on Tue Jul 01 2025 00:03:44 GMT+0000 (Coordinated Universal Time)

1 45727U 20037E 25181.45402014 .00002242 00000+0 17433-3 0 9994 2 45727 97.8154 4.2542 0012000 258.0439 101.9440 15.02292832272646
UTC large
Height (km)
Speed (km/s)
/
Latitude / Longitude
Inclination (degrees)
Orbital Period (minutes)
Azimuth
Elevation
Range (km)
Doppler Factor

Next 0 passes for location: London (51.5072 / 0.1276)

Sorry there are no passes over London.